Wind_Speed
10 13 14 15 16 17 18 19 19 18 19 19 20 20 20 21 22 22 23 23 24 25 25 25 26 27 27 28 29 30 30 31 31 32 33 33 34 34 34 34 35 35 35
8 11 12 14 16 17 19 20 20 20 20 20 21 21 21 22 24 24 25 25 26 26 27 27 28 29 30 31 32 32 33 34 35 36 37 38 38 38 38 38 39 39 39
8 10 12 14 16 17 19 21 21 22 21 21 22 22 23 23 24 25 25 25 27 27 28 29 30 31 33 34 35 35 36 37 37 38 39 41 41 41 42 42 42 42 41
9 10 12 14 16 17 18 20 20 20 21 21 22 22 23 23 24 25 26 27 28 29 30 32 33 34 36 37 37 38 39 40 41 41 41 43 43 44 44 44 44 44 43
11 12 13 14 15 17 19 19 20 20 21 21 22 22 23 24 25 26 28 29 31 32 33 35 36 38 39 40 41 42 42 42 43 44 44 45 46 47 48 47 47 47 47
14 14 15 15 16 17 18 19 20 20 21 22 23 24 25 26 27 28 30 31 33 35 36 37 38 40 41 43 44 44 45 45 46 47 48 48 49 50 50 50 51 51 50
16 16 16 17 16 15 16 18 19 21 22 23 24 26 28 29 30 31 33 35 36 37 39 40 41 41 42 44 44 45 46 46 48 49 50 51 51 51 51 52 53 53 53
17 17 18 18 18 18 18 19 19 21 23 25 26 28 30 31 33 34 36 37 38 39 41 42 43 43 44 45 46 47 48 49 49 50 51 52 52 52 53 53 54 55 55
18 19 19 19 20 21 21 21 21 23 25 27 29 30 32 34 36 37 38 39 41 41 42 43 44 45 45 46 48 48 49 50 51 52 52 53 53 54 54 55 55 56 56
20 21 22 22 22 22 23 24 25 27 28 30 31 33 35 36 38 39 40 41 42 43 43 44 45 46 47 49 50 50 51 52 53 54 55 56 56 56 57 57 58 58 58
23 23 23 24 24 25 26 27 29 30 31 33 34 36 37 38 39 40 41 42 43 44 45 46 47 48 49 50 51 52 53 54 55 56 56 57 58 59 59 60 60 61 61
26 26 26 27 28 28 29 30 31 32 33 35 36 37 38 40 41 42 43 44 45 46 48 49 50 51 53 53 54 55 55 56 57 58 59 59 60 60 61 61 62 62 63
28 29 29 29 29 30 31 32 32 34 35 36 38 39 40 41 42 43 44 46 48 49 51 52 53 55 56 56 57 58 58 59 59 60 60 61 61 61 61 62 62 62 62
30 30 29 29 30 31 32 33 34 35 36 38 39 41 42 43 44 46 48 49 51 53 54 55 56 57 58 59 59 60 60 60 60 60 60 60 60 60 60 60 60 60 60
29 30 30 29 30 31 32 33 35 36 38 40 41 43 44 46 48 50 52 53 54 56 57 58 58 59 59 59 59 59 59 58 57 57 57 57 57 57 57 57 56 56 56
27 28 29 30 31 32 33 34 36 38 40 41 44 46 48 50 52 53 55 56 57 58 58 58 58 58 57 57 56 56 55 54 54 53 53 52 52 51 52 52 51 51 50
26 28 29 31 32 33 34 36 38 40 42 45 47 49 51 53 55 56 57 57 57 57 57 56 56 55 53 53 52 51 50 49 48 47 47 46 46 45 45 45 44 44 43
27 29 30 31 33 35 37 39 42 44 46 48 51 53 54 55 56 56 55 55 54 54 53 52 51 49 48 47 45 44 43 42 42 41 40 39 38 38 37 37 37 36 36
27 29 31 33 35 38 41 43 46 48 50 52 53 54 54 54 53 53 52 52 51 50 48 47 45 44 42 41 40 39 38 37 37 36 34 33 33 32 32 31 31 31 32
29 31 34 37 39 42 44 47 49 50 51 52 53 53 53 52 51 51 49 48 46 44 43 41 40 39 38 37 36 35 34 33 32 32 31 30 29 29 28 28 28 28 28
32 35 38 40 43 45 47 48 49 50 51 51 50 50 50 49 48 47 45 43 41 39 38 37 36 35 35 34 32 31 30 29 28 28 27 27 27 27 26 26 25 25 25
36 38 41 43 44 46 47 48 48 49 49 49 48 48 47 45 43 42 40 39 37 36 35 34 34 33 32 31 29 28 28 27 26 26 26 25 25 25 25 24 24 24 23
39 40 42 44 45 46 46 47 47 47 46 46 45 44 42 40 39 38 37 35 34 34 33 33 32 31 30 29 28 27 26 25 25 24 24 24 24 24 24 23 23 23 23
40 41 42 43 44 45 45 45 44 43 42 41 40 39 37 36 36 35 34 33 33 32 31 30 30 29 28 27 26 25 24 24 23 23 23 22 22 23 23 23 23 23 22
40 40 41 42 42 42 42 41 40 39 38 37 36 35 34 34 33 33 31 31 30 30 29 29 28 27 26 25 24 24 23 23 22 22 22 22 22 23 23 23 22 22 22
38 39 39 39 39 38 38 37 36 35 34 33 33 32 32 31 30 29 29 29 28 28 27 27 26 25 24 24 24 23 22 22 22 22 22 21 22 22 22 22 21 21 21
Wind_Direction
210 212 217 222 225 229 231 232 235 238 242 245 248 250 253 256 257 258 258 260 261 263 265 267 267 268 268 268 269 269 270 271 273 274 275 275 275 274 274 274 274 273 272
223 221 224 227 230 234 235 237 239 243 247 249 251 254 257 258 259 259 260 263 264 266 267 269 270 270 270 271 272 273 273 273 274 275 275 275 275 275 274 274 274 274 273
237 236 235 235 237 241 241 242 244 247 250 253 256 258 260 262 262 263 265 267 268 269 270 272 272 273 272 272 273 273 274 275 275 275 276 276 275 275 275 275 275 275 274
247 245 245 248 246 247 249 249 250 253 255 256 257 260 261 264 267 267 269 270 271 272 274 275 275 275 275 275 275 275 276 276 277 277 278 277 275 275 275 276 275 274 274
258 256 256 258 256 256 256 255 254 256 258 259 261 262 265 268 269 270 272 273 274 275 276 277 277 277 277 277 277 277 277 278 278 278 278 277 277 276 275 274 274 274 273
265 261 259 263 261 260 259 257 258 260 261 262 265 268 271 273 274 274 275 276 276 277 278 279 279 280 279 278 278 278 278 278 278 279 278 278 278 278 276 275 274 274 274
263 260 259 263 263 260 264 263 262 264 266 268 270 271 274 276 276 277 279 279 279 280 280 280 281 282 281 280 279 280 280 280 280 280 279 279 279 279 278 277 275 274 275
262 261 263 263 263 264 268 269 268 270 273 274 275 276 277 278 278 279 281 282 283 282 282 282 283 283 283 282 282 281 281 280 280 280 280 280 281 280 279 278 278 277 276
260 260 261 264 266 268 269 270 273 275 277 277 278 279 280 280 281 282 282 283 283 283 283 282 282 282 282 281 282 282 282 282 281 281 281 281 281 280 280 280 279 279 278
260 261 262 264 269 271 271 273 275 277 277 278 280 281 282 283 283 283 283 283 283 283 283 283 283 283 283 283 283 283 283 283 283 283 282 282 282 281 281 281 280 280 280
261 262 263 266 269 272 275 277 278 279 280 281 282 283 283 284 284 285 284 284 284 284 284 284 284 284 284 284 284 283 283 283 283 283 283 282 282 282 282 282 282 281 281
260 262 264 267 270 273 276 278 280 281 282 282 283 283 283 284 285 285 285 285 285 285 285 285 285 285 285 284 284 284 284 284 284 285 284 284 284 283 283 283 283 283 283
259 262 265 269 272 275 277 279 281 282 283 283 284 284 285 285 286 286 286 286 286 286 286 285 285 285 285 285 285 285 285 285 285 285 284 284 284 284 284 283 283 283 282
261 265 266 270 273 276 278 280 281 283 284 285 286 287 287 287 287 287 287 287 287 287 287 287 287 287 287 286 286 286 286 286 286 285 285 285 284 284 284 283 283 283 283
262 266 269 273 275 278 280 282 283 285 286 287 288 289 289 289 289 289 290 290 290 291 291 291 290 290 289 289 288 288 287 287 286 285 285 284 284 284 283 283 282 282 282
266 270 273 275 278 280 283 285 286 288 289 290 290 291 292 292 292 293 293 294 294 294 294 293 293 292 292 291 290 290 289 288 287 286 285 285 285 284 283 282 282 282 282
271 275 277 280 283 285 287 288 289 290 291 292 293 294 295 295 296 297 297 297 296 296 295 295 294 294 293 293 292 291 290 289 288 287 286 286 285 285 284 283 283 283 283
277 280 283 286 288 289 290 291 292 293 294 295 296 297 298 299 299 300 300 299 299 298 297 297 296 296 295 295 294 292 291 289 289 288 287 286 286 286 286 285 284 284 284
282 285 288 290 291 292 294 295 296 297 298 299 300 300 301 301 301 301 301 301 300 299 299 298 298 297 296 295 294 293 291 290 289 288 288 287 288 288 288 287 287 287 286
289 291 292 293 295 296 298 299 300 301 302 302 303 303 303 303 303 303 303 302 302 301 300 300 299 298 297 296 294 293 292 291 289 289 288 288 289 290 291 291 292 291 290
294 295 296 297 298 300 301 302 303 303 304 304 305 305 305 305 305 305 304 303 302 302 301 301 301 300 298 297 296 295 293 291 290 290 289 289 291 292 293 294 294 294 294
297 298 299 300 302 303 303 304 305 305 306 306 306 305 305 305 305 305 304 303 302 301 301 301 301 300 299 297 296 295 293 292 292 291 291 291 292 293 294 295 295 296 296
300 302 302 303 304 305 306 306 307 307 307 306 306 306 307 307 306 306 305 304 303 302 302 301 301 300 298 296 295 294 292 291 291 290 291 293 294 295 295 296 297 297 297
303 304 304 305 306 307 307 308 308 308 308 308 308 308 308 308 307 307 306 305 305 304 304 303 302 301 299 297 295 294 293 292 290 290 290 292 293 294 295 296 297 297 299
305 305 306 307 308 308 309 310 310 310 310 311 311 310 310 310 310 310 308 308 308 307 306 305 303 301 300 299 297 296 295 293 292 291 290 290 292 293 295 297 297 298 299
305 306 308 309 310 311 312 312 312 312 313 314 314 313 313 313 313 313 312 311 311 310 309 308 306 304 303 302 301 299 297 295 294 294 292 293 293 293 293 295 296 297 298
Height
5836 5838 5841 5842 5844 5846 5848 5850 5852 5854 5855 5857 5858 5858 5859 5860 5860 5860 5860 5860 5860 5860 5861 5861 5860 5860 5860 5859 5859 5858 5857 5857 5856 5854 5853 5852 5851 5850 5849 5848 5847 5847 5846
5835 5836 5838 5839 5840 5842 5844 5846 5848 5849 5851 5852 5853 5853 5854 5854 5854 5854 5854 5854 5854 5854 5854 5854 5853 5853 5853 5852 5851 5850 5849 5848 5847 5846 5844 5843 5842 5841 5840 5839 5838 5837 5836
5833 5834 5835 5836 5837 5838 5840 5842 5843 5845 5846 5847 5847 5848 5848 5848 5848 5848 5848 5848 5847 5847 5847 5846 5846 5845 5844 5843 5842 5841 5840 5839 5838 5836 5834 5833 5832 5830 5829 5828 5827 5826 5825
5830 5831 5831 5832 5833 5834 5836 5837 5838 5840 5840 5841 5841 5842 5842 5842 5842 5842 5841 5841 5841 5840 5839 5838 5837 5836 5835 5834 5833 5832 5830 5828 5827 5825 5824 5822 5820 5819 5818 5817 5815 5814 5813
5828 5828 5828 5829 5830 5831 5831 5833 5834 5834 5835 5835 5836 5836 5836 5836 5835 5835 5834 5834 5833 5832 5831 5829 5828 5827 5825 5824 5822 5821 5819 5817 5815 5814 5812 5810 5809 5807 5805 5804 5802 5801 5800
5824 5824 5824 5825 5826 5826 5826 5828 5828 5829 5829 5830 5830 5830 5829 5829 5828 5827 5826 5825 5824 5823 5821 5819 5818 5816 5814 5812 5811 5809 5807 5805 5803 5801 5799 5797 5796 5793 5792 5790 5788 5788 5787
5819 5820 5820 5821 5821 5822 5822 5823 5823 5823 5824 5823 5823 5823 5822 5821 5821 5819 5818 5816 5815 5813 5811 5809 5807 5805 5803 5801 5799 5797 5794 5792 5791 5788 5786 5784 5781 5779 5777 5775 5774 5772 5771
5815 5816 5816 5817 5817 5817 5818 5818 5818 5818 5818 5817 5817 5816 5815 5814 5812 5811 5809 5807 5805 5803 5801 5798 5796 5793 5791 5788 5786 5784 5781 5779 5777 5774 5772 5769 5767 5764 5762 5760 5758 5757 5756
5811 5811 5812 5812 5812 5813 5813 5813 5812 5812 5811 5810 5809 5808 5807 5805 5804 5802 5800 5797 5795 5792 5790 5787 5784 5782 5779 5776 5773 5770 5767 5765 5762 5759 5757 5754 5751 5748 5746 5744 5742 5740 5739
5806 5806 5806 5806 5807 5807 5807 5806 5806 5805 5804 5802 5801 5799 5798 5796 5794 5792 5789 5787 5784 5781 5778 5775 5772 5769 5766 5763 5760 5756 5753 5750 5747 5744 5741 5738 5735 5732 5729 5726 5724 5722 5720
5801 5801 5801 5801 5801 5801 5800 5800 5799 5797 5796 5794 5792 5790 5788 5786 5784 5781 5778 5775 5772 5768 5765 5762 5759 5756 5752 5749 5745 5742 5738 5734 5731 5727 5724 5720 5717 5714 5711 5708 5706 5703 5701
5794 5794 5794 5794 5794 5793 5793 5791 5790 5789 5787 5785 5783 5780 5778 5775 5772 5769 5766 5763 5759 5755 5752 5748 5745 5741 5737 5734 5730 5726 5722 5718 5714 5711 5707 5703 5699 5696 5693 5690 5687 5684 5681
5787 5787 5787 5786 5786 5785 5784 5783 5781 5779 5777 5775 5773 5770 5767 5764 5761 5757 5754 5750 5746 5742 5738 5734 5730 5726 5722 5718 5714 5709 5705 5701 5697 5693 5689 5685 5681 5678 5674 5671 5668 5665 5662
5780 5779 5779 5778 5777 5776 5775 5774 5772 5770 5767 5765 5762 5759 5755 5752 5749 5745 5741 5737 5733 5728 5723 5719 5714 5710 5705 5700 5696 5692 5687 5683 5679 5674 5670 5666 5663 5659 5656 5652 5649 5646 5643
5772 5772 5771 5770 5769 5768 5766 5765 5762 5760 5757 5754 5751 5747 5743 5740 5736 5731 5726 5722 5716 5711 5706 5701 5696 5691 5686 5681 5676 5672 5667 5663 5659 5655 5651 5648 5644 5641 5637 5634 5631 5627 5624
5764 5764 5763 5762 5761 5759 5757 5755 5752 5750 5746 5743 5739 5735 5730 5726 5721 5716 5711 5705 5699 5694 5688 5683 5677 5672 5667 5662 5657 5652 5648 5644 5640 5637 5633 5629 5626 5623 5619 5616 5613 5610 5607
5757 5756 5755 5754 5752 5750 5747 5745 5742 5739 5735 5731 5726 5721 5716 5711 5706 5700 5694 5688 5682 5676 5671 5665 5659 5654 5649 5644 5639 5635 5631 5626 5623 5619 5616 5612 5609 5606 5603 5600 5597 5595 5593
5750 5748 5747 5745 5743 5740 5737 5734 5730 5726 5722 5717 5712 5707 5701 5695 5689 5683 5677 5671 5665 5659 5654 5648 5643 5638 5633 5628 5624 5619 5615 5612 5608 5605 5601 5598 5596 5593 5590 5587 5585 5583 5580
5742 5740 5738 5736 5733 5729 5726 5721 5717 5712 5707 5702 5697 5691 5685 5679 5673 5667 5661 5655 5649 5643 5638 5632 5628 5623 5618 5614 5610 5606 5602 5599 5596 5593 5590 5587 5584 5582 5579 5577 5575 5572 5570
5734 5731 5729 5726 5722 5718 5713 5709 5704 5698 5693 5687 5681 5675 5669 5664 5658 5652 5646 5640 5634 5629 5624 5619 5615 5610 5606 5602 5598 5595 5591 5588 5585 5583 5580 5577 5575 5573 5570 5568 5565 5563 5560
5725 5722 5718 5715 5710 5706 5701 5696 5690 5685 5679 5673 5667 5661 5655 5649 5643 5638 5632 5627 5622 5617 5613 5608 5604 5600 5596 5592 5588 5585 5582 5579 5576 5574 5571 5569 5566 5564 5562 5559 5557 5554 5552
5715 5711 5707 5703 5698 5693 5688 5683 5677 5671 5665 5659 5654 5648 5642 5636 5631 5626 5621 5616 5611 5607 5602 5598 5594 5590 5586 5582 5579 5576 5573 5570 5568 5565 5563 5560 5558 5556 5554 5551 5549 5546 5544
5704 5700 5696 5691 5686 5681 5676 5670 5664 5658 5653 5647 5641 5636 5630 5625 5620 5615 5610 5605 5601 5597 5592 5588 5584 5580 5576 5573 5570 5567 5565 5562 5560 5557 5555 5553 5551 5549 5546 5544 5541 5539 5537
5693 5689 5684 5680 5675 5669 5664 5658 5653 5647 5641 5636 5630 5625 5620 5615 5610 5605 5600 5596 5591 5587 5583 5579 5575 5571 5568 5565 5562 5559 5556 5554 5552 5550 5548 5546 5544 5542 5539 5537 5534 5532 5529
5683 5678 5674 5669 5664 5658 5653 5648 5642 5637 5631 5626 5620 5615 5610 5606 5601 5596 5591 5587 5583 5578 5574 5570 5567 5563 5560 5557 5554 5551 5549 5546 5544 5542 5540 5539 5537 5534 5532 5530 5528 5525 5523
5673 5668 5663 5658 5653 5648 5643 5638 5633 5627 5622 5617 5612 5607 5602 5597 5593 5588 5584 5579 5575 5571 5567 5563 5559 5556 5552 5549 5546 5544 5541 5539 5537 5535 5533 5531 5529 5527 5525 5523 5521 5519 5516